[[{"header":{"parameterUnit":"m.s-1","parameterCategory":1,"la1":30.2991,"la2":30.254,"lo1":-89.0895,"lo2":-89.0444,"dy":0.0017,"dx":0.0017,"nx":28,"ny":28,"refTime":"2023-08-02T09:00:00:Z","depth":0,"parameterNumber":2,"parameterNumberName":"U-component_of_WINDS"},"data":[0,0,0,0,0,0,0,0,0,0,0,0,0,0,0,0,0,0,0,0,0,0,0,0,0,0,0,0,0,0,0,0,0,0,0,0,0,0,0,0,0,0,0,0,0,0,0,0,0,0,0,0,0,0,0,0,0,0,-1.1748,-1.1747,0,-1.167,-1.1669,-1.1668,-1.1617,-1.1617,-1.1617,-1.1616,-1.1534,-1.1532,-1.153,0,0,0,0,0,0,0,0,0,0,0,0,0,-1.1849,-1.1848,-1.1748,-1.1747,-1.1746,-1.167,-1.1669,-1.1668,-1.1617,-1.1617,-1.1617,-1.1616,-1.1534,-1.1532,-1.153,0,0,0,0,0,0,0,0,0,0,0,0,0,-1.1792,-1.1847,-1.1748,-1.1712,-1.1707,-1.1671,-1.1669,-1.1668,-1.1618,-1.1617,-1.1617,-1.1616,-1.1535,-1.1532,-1.1529,-1.1522,0,0,-1.1521,-1.1519,0,0,0,0,0,0,0,0,-1.1795,-1.1788,-1.1718,-1.1714,-1.1709,-1.1653,-1.1675,-1.1619,-1.1618,-1.1652,-1.1616,-1.1616,-1.1574,-1.1567,-1.1554,-1.1518,-1.1514,-1.152,-1.1519,-1.1517,-1.1517,0,0,0,0,0,0,0,-1.1799,-1.1791,-1.1717,-1.1717,-1.1712,-1.1698,-1.1689,-1.1664,-1.1616,-1.1649,-1.1645,-1.1636,-1.1571,-1.1557,-1.1552,-1.1513,-1.152,-1.1518,-1.1516,-1.1515,-1.1467,-1.1468,0,0,0,0,0,0,-1.1809,-1.1795,-1.1719,-1.1715,-1.1752,-1.1697,-1.1687,-1.1672,-1.1616,-1.1607,-1.1637,-1.1634,-1.1562,-1.1555,-1.1548,-1.1537,-1.1517,-1.1515,-1.1513,-1.1467,-1.1468,-1.1468,0,0,0,0,0,0,-1.1812,-1.1803,-1.1723,-1.1754,-1.1742,-1.1696,-1.1679,-1.167,-1.1656,-1.1608,-1.1598,-1.1631,-1.1561,-1.1552,-1.1529,-1.1533,-1.1513,-1.1511,-1.1467,-1.1467,-1.1468,-1.1513,0,0,0,0,0,0,-1.1815,-1.1804,-1.1801,-1.1754,-1.1741,-1.1706,-1.1679,-1.1669,-1.1652,-1.1648,-1.16,-1.1591,-1.156,-1.1534,-1.1526,-1.1529,-1.1509,-1.1466,-1.1467,-1.1468,-1.1511,-1.1515,-1.1519,0,0,0,0,0,-1.1819,-1.1816,-1.1801,-1.1793,-1.1737,-1.1706,-1.1698,-1.1663,-1.1652,-1.1649,-1.1618,-1.1593,-1.1534,-1.1532,-1.1523,-1.1525,-1.1466,-1.1467,-1.1468,-1.1509,-1.1514,-1.1519,0,0,0,0,0,0,-1.1864,-1.1809,-1.1792,-1.1775,-1.1746,-1.1697,-1.1692,-1.167,-1.1642,-1.1639,-1.1596,-1.1586,-1.1567,-1.1543,-1.1542,-1.1515,-1.1497,-1.1496,-1.1531,-1.1536,-1.154,-1.1546,-1.1506,0,0,0,0,0,-1.1872,-1.1852,-1.1805,-1.1794,-1.1781,-1.1739,-1.1724,-1.17,-1.1668,-1.1655,-1.1622,-1.159,-1.1565,-1.1549,-1.1522,-1.1507,-1.1496,-1.1504,-1.1508,-1.1511,-1.1511,-1.1502,-1.1506,-1.1471,-1.1471,-1.1471,0,0,-1.1888,-1.1856,-1.1846,-1.1802,-1.1777,-1.1758,-1.1729,-1.1709,-1.1694,-1.1651,-1.1628,-1.1603,-1.1565,-1.1546,-1.1536,-1.1525,-1.1518,-1.1512,-1.1516,-1.1514,-1.1504,-1.1507,-1.151,-1.1472,-1.1472,-1.1472,0,0,-1.1907,-1.1881,-1.187,-1.1845,-1.1808,-1.178,-1.1777,-1.1733,-1.1715,-1.1691,-1.1659,-1.164,-1.1596,-1.1571,-1.1553,-1.1564,-1.1541,-1.1556,-1.1577,-1.1569,-1.1572,-1.1574,-1.1579,-1.1581,-1.1557,-1.1557,-1.1557,0,-1.1932,-1.1902,-1.1866,-1.1849,-1.1831,-1.1793,-1.1781,-1.1758,-1.1714,-1.1702,-1.1691,-1.1637,-1.1608,-1.1584,-1.1587,-1.1572,-1.1568,-1.1562,-1.1575,-1.1576,-1.1578,-1.1582,-1.1584,-1.1559,-1.1559,-1.1559,-1.1558,0,-1.1935,-1.1915,-1.191,-1.187,-1.1851,-1.1836,-1.1797,-1.1783,-1.176,-1.1734,-1.171,-1.1675,-1.1642,-1.1634,-1.1611,-1.1606,-1.1601,-1.1583,-1.1564,-1.1584,-1.1588,-1.1589,-1.1562,-1.1561,-1.1561,-1.156,0,0,-1.1981,-1.1922,-1.1921,-1.1903,-1.1859,-1.1842,-1.1825,-1.1794,-1.1783,-1.1753,-1.1739,-1.1703,-1.1687,-1.1666,-1.164,-1.1633,-1.1646,-1.1615,-1.1614,-1.1623,-1.1639,-1.1654,-1.1657,-1.1629,-1.163,-1.163,-1.1643,0,-1.1995,-1.1965,-1.1933,-1.1914,-1.1895,-1.1859,-1.1845,-1.1816,-1.1791,-1.1771,-1.1742,-1.1719,-1.1698,-1.1685,-1.1676,-1.1646,-1.1648,-1.1644,-1.1615,-1.1615,-1.1628,-1.1658,-1.1674,-1.1688,-1.1644,-1.1644,-1.1644,0,-1.2007,-1.1982,-1.1962,-1.1921,-1.1912,-1.19,-1.1869,-1.185,-1.1817,-1.1799,-1.1777,-1.1749,-1.173,-1.1713,-1.1685,-1.1684,-1.167,-1.1653,-1.1653,-1.1649,-1.1632,-1.1657,-1.1692,-1.1694,-1.1646,-1.1646,-1.1646,0,-1.2045,-1.2005,-1.1988,-1.1973,-1.1925,-1.1917,-1.1897,-1.1863,-1.1847,-1.1819,-1.1808,-1.1778,-1.1762,-1.174,-1.1705,-1.1695,-1.1682,-1.1661,-1.1666,-1.1668,-1.1666,-1.1667,-1.17,-1.1655,-1.1655,-1.1655,-1.1655,0,-1.2065,-1.2054,-1.2004,-1.1994,-1.1982,-1.1944,-1.1932,-1.1907,-1.1878,-1.1862,-1.1828,-1.1813,-1.1768,-1.1748,-1.172,-1.1703,-1.1695,-1.168,-1.1673,-1.1684,-1.1686,-1.1675,-1.1674,-1.1656,-1.1655,-1.1655,-1.1655,0,-1.2105,-1.2071,-1.205,-1.2007,-1.1995,-1.1988,-1.195,-1.1939,-1.1912,-1.1892,-1.1886,-1.1843,-1.1818,-1.1781,-1.1744,-1.1725,-1.1713,-1.17,-1.1725,-1.1721,-1.1728,-1.1729,-1.1757,-1.1759,-1.1712,-1.1712,-1.1713,0,-1.212,-1.2112,-1.2068,-1.2055,-1.2036,-1.2016,-1.2,-1.1962,-1.1947,-1.1909,-1.1902,-1.1874,-1.1851,-1.1812,-1.1778,-1.1749,-1.1737,-1.1749,-1.1732,-1.1744,-1.1739,-1.174,-1.174,-1.1753,-1.1754,-1.1754,-1.1755,0,-1.2152,-1.2136,-1.2115,-1.2088,-1.207,-1.2046,-1.2021,-1.2012,-1.1969,-1.1953,-1.1928,-1.1909,-1.1873,-1.1846,-1.1813,-1.1791,-1.1766,-1.176,-1.176,-1.1772,-1.1787,-1.178,-1.1737,-1.176,-1.1759,-1.1759,-1.1759,-1.1758,-1.2181,-1.2172,-1.2141,-1.2118,-1.2095,-1.2073,-1.2061,-1.2033,-1.2012,-1.198,-1.1958,-1.1935,-1.1902,-1.1856,-1.1835,-1.1815,-1.1804,-1.1804,-1.1804,-1.1805,-1.181,-1.1789,-1.1809,-1.1809,-1.1808,-1.1808,-1.1808,0,-1.2212,-1.219,-1.217,-1.2137,-1.2119,-1.2098,-1.2069,-1.2055,-1.2036,-1.2008,-1.1985,-1.1957,-1.1931,-1.1895,-1.1867,-1.1858,-1.1846,-1.1852,-1.1853,-1.1848,-1.182,-1.1824,-1.1862,-1.1862,-1.1862,-1.1862,-1.1862,-1.1862,-1.2227,-1.2211,-1.2192,-1.2165,-1.2142,-1.212,-1.2106,-1.2085,-1.2063,-1.2033,-1.2012,-1.1989,-1.1958,-1.1927,-1.1902,-1.1892,-1.1884,-1.1894,-1.188,-1.1855,-1.185,-1.1845,-1.1849,-1.1892,-1.1892,-1.191,-1.191,-1.191]},{"header":{"parameterUnit":"m.s-1","parameterCategory":1,"la1":30.2991,"la2":30.254,"lo1":-89.0895,"lo2":-89.0444,"dy":0.0017,"dx":0.0017,"nx":28,"ny":28,"refTime":"2023-08-02T09:00:00:Z","depth":0,"parameterNumber":3,"parameterNumberName":"V-component_of_WINDS"},"data":[0,0,0,0,0,0,0,0,0,0,0,0,0,0,0,0,0,0,0,0,0,0,0,0,0,0,0,0,0,0,0,0,0,0,0,0,0,0,0,0,0,0,0,0,0,0,0,0,0,0,0,0,0,0,0,0,0,0,3.548,3.5479,0,3.5413,3.5412,3.5411,3.5351,3.535,3.5349,3.5349,3.5273,3.5271,3.527,0,0,0,0,0,0,0,0,0,0,0,0,0,3.5552,3.5551,3.548,3.5479,3.5478,3.5413,3.5412,3.5411,3.5351,3.535,3.5349,3.5348,3.5273,3.5271,3.527,0,0,0,0,0,0,0,0,0,0,0,0,0,3.5506,3.5551,3.548,3.5441,3.5437,3.5413,3.5412,3.5411,3.5351,3.535,3.5349,3.5348,3.5274,3.5272,3.5269,3.5277,0,0,3.5263,3.5262,0,0,0,0,0,0,0,0,3.5509,3.5504,3.5447,3.5443,3.5439,3.5389,3.5409,3.5366,3.5351,3.5383,3.5349,3.5347,3.5312,3.5306,3.5296,3.5274,3.527,3.5263,3.5262,3.5261,3.526,0,0,0,0,0,0,0,3.5512,3.5506,3.5453,3.5447,3.5441,3.5425,3.5417,3.5401,3.5354,3.538,3.5376,3.5369,3.5309,3.5298,3.5294,3.5269,3.5263,3.5261,3.526,3.5259,3.525,3.5251,0,0,0,0,0,0,3.5522,3.5509,3.5455,3.5451,3.5472,3.5424,3.5416,3.5406,3.5354,3.5345,3.537,3.5367,3.5302,3.5296,3.5291,3.5295,3.5261,3.5259,3.5258,3.5249,3.5251,3.5252,0,0,0,0,0,0,3.5524,3.5518,3.5458,3.5479,3.547,3.5424,3.5414,3.5405,3.5394,3.5346,3.5337,3.5368,3.5301,3.5294,3.5282,3.5292,3.5258,3.5256,3.5248,3.525,3.5251,3.5306,0,0,0,0,0,0,3.5527,3.5519,3.5522,3.548,3.5469,3.5452,3.5414,3.5405,3.5391,3.5386,3.5341,3.5333,3.53,3.5285,3.528,3.5289,3.5254,3.5247,3.5249,3.5251,3.5303,3.5309,3.5315,0,0,0,0,0,3.5529,3.5539,3.5523,3.5517,3.5473,3.5452,3.5446,3.541,3.5393,3.5395,3.5365,3.5334,3.5293,3.5284,3.5278,3.5286,3.5246,3.5248,3.5251,3.53,3.5308,3.5314,0,0,0,0,0,0,3.5581,3.5533,3.5514,3.5511,3.5487,3.5442,3.5444,3.5419,3.5397,3.5392,3.5346,3.5337,3.533,3.5307,3.5298,3.5291,3.5265,3.5266,3.5306,3.5312,3.5318,3.5322,3.5253,0,0,0,0,0,3.5593,3.5582,3.554,3.5541,3.553,3.549,3.5479,3.5454,3.5425,3.5414,3.5383,3.5355,3.5335,3.5323,3.5303,3.5301,3.5289,3.5304,3.531,3.5315,3.5315,3.5311,3.5317,3.5259,3.5259,3.5259,0,0,3.5615,3.5588,3.5583,3.5551,3.5529,3.5517,3.5481,3.5469,3.546,3.5411,3.5398,3.5375,3.5341,3.5334,3.5329,3.5315,3.5329,3.5318,3.5322,3.5319,3.5314,3.532,3.5325,3.5261,3.526,3.526,0,0,3.565,3.5629,3.5627,3.5607,3.5576,3.555,3.555,3.551,3.5493,3.548,3.5444,3.5431,3.5399,3.5376,3.5361,3.5391,3.5361,3.5386,3.5414,3.5411,3.5416,3.542,3.5428,3.5432,3.5387,3.5387,3.5387,0,3.5681,3.5663,3.5629,3.5621,3.5607,3.5567,3.5564,3.5546,3.5508,3.5499,3.5485,3.5444,3.5419,3.5406,3.5413,3.5403,3.54,3.5388,3.5419,3.5422,3.5425,3.5432,3.5436,3.539,3.5389,3.5389,3.5389,0,3.5703,3.5691,3.5694,3.5661,3.5648,3.5643,3.5606,3.5597,3.5574,3.5549,3.5536,3.5505,3.5477,3.5473,3.5449,3.5457,3.5449,3.5428,3.54,3.5434,3.544,3.5443,3.5394,3.5393,3.5392,3.5391,0,0,3.5763,3.5716,3.5717,3.5702,3.5666,3.5655,3.5649,3.5624,3.5617,3.5594,3.5585,3.5561,3.5541,3.5523,3.5497,3.5495,3.5519,3.5473,3.5472,3.5481,3.5524,3.5538,3.5542,3.5502,3.5502,3.5503,3.5526,0,3.579,3.5776,3.5747,3.5741,3.573,3.5693,3.5687,3.5664,3.5641,3.5627,3.5601,3.5584,3.556,3.5549,3.5546,3.5517,3.5527,3.5515,3.549,3.549,3.5497,3.5546,3.556,3.5584,3.5529,3.5529,3.5529,0,3.5818,3.58,3.5794,3.576,3.5754,3.5749,3.5725,3.5713,3.5686,3.5669,3.5652,3.5624,3.5613,3.5591,3.5574,3.5567,3.5556,3.5541,3.5541,3.5534,3.5509,3.5537,3.559,3.5593,3.5533,3.5533,3.5533,0,3.586,3.5834,3.5828,3.5816,3.5777,3.5774,3.5758,3.573,3.5718,3.5697,3.5688,3.5666,3.5652,3.5635,3.5601,3.5589,3.5588,3.5563,3.5572,3.5572,3.5569,3.5569,3.5618,3.5568,3.5568,3.5568,3.5568,0,3.5891,3.5888,3.5846,3.5842,3.5838,3.5804,3.5801,3.578,3.5756,3.5746,3.5714,3.5704,3.5662,3.5648,3.5622,3.5611,3.5606,3.559,3.5583,3.5591,3.5593,3.558,3.5577,3.5569,3.5569,3.5568,3.5568,0,3.5935,3.5908,3.5898,3.5863,3.5854,3.5853,3.5822,3.5816,3.5793,3.578,3.5776,3.5739,3.572,3.5687,3.5658,3.564,3.5634,3.5623,3.5643,3.5638,3.5647,3.5646,3.5687,3.569,3.5641,3.5642,3.5642,0,3.5955,3.5953,3.5919,3.5911,3.5896,3.5884,3.5872,3.584,3.5829,3.5799,3.5796,3.5776,3.5757,3.573,3.5699,3.5677,3.5663,3.5679,3.5659,3.5668,3.566,3.5659,3.5658,3.5682,3.5683,3.5683,3.5684,0,3.5992,3.598,3.5965,3.5947,3.5935,3.5918,3.5899,3.5894,3.5857,3.5846,3.5828,3.5815,3.5787,3.5766,3.5741,3.5721,3.5695,3.5692,3.5692,3.5699,3.571,3.5702,3.5652,3.5689,3.5689,3.5688,3.5688,3.5688,3.6023,3.6019,3.5996,3.5981,3.5964,3.5948,3.5941,3.5919,3.5904,3.588,3.5862,3.5846,3.5819,3.5783,3.5765,3.575,3.5738,3.5739,3.5739,3.5739,3.5742,3.5716,3.5746,3.5746,3.5746,3.5745,3.5745,0,3.6057,3.6041,3.6028,3.6004,3.5993,3.5974,3.5953,3.5944,3.593,3.5909,3.5893,3.5873,3.5854,3.5823,3.5801,3.5795,3.5783,3.579,3.5788,3.5784,3.5755,3.5755,3.58,3.58,3.58,3.58,3.58,3.58,3.6073,3.6065,3.605,3.6034,3.6017,3.6002,3.5992,3.5976,3.596,3.5939,3.5924,3.5906,3.588,3.5857,3.5838,3.5829,3.5821,3.5832,3.5819,3.5791,3.5786,3.5781,3.5781,3.5831,3.5831,3.5849,3.5849,3.585]}]]